Back to catalog

SITRO-AIS-15

AliveCommunicationsSSO
NORAD 61738·PAYLOAD·🇷🇺 Russia
This satellite name has not been confirmed by official sources yet.

Launched Nov 4, 2024 from Vostochny Cosmodrome

Loading…

Next Passes (next 24 hours)

TLE

FreshSource: Space-Track

Epoch: Sep 14, 2026, 20:41 UTC

1 61738U 24199D   26257.86222986  .00001756  00000-0  15332-3 0  9991
2 61738  97.3191  91.6504 0007243 116.8231 243.3734 14.97976437145249

Track SITRO-AIS-15 in real time with AllMySat

Download on the App Store